When you browse on this site, cookies collect data to enhance your experience and personalize the content and advertising you see.
Visit our Privacy Policy to learn more. By continuing to use the site, you agree to this use of cookies and data.
EN

Hourly Weather Cehok

Today, 20 September, Sunday

Time Temperature Precipitation Wind Pressure Humidity
00:00 +10°C° 0 mm 1 mps 628 mmHg 81%
01:00 +9°C° 0 mm 1 mps 628 mmHg 81%
02:00 +9°C° 0 mm 1 mps 628 mmHg 82%
03:00 +8°C° 0 mm 1 mps 628 mmHg 81%
04:00 +8°C° 0 mm 1 mps 628 mmHg 83%
05:00 +8°C° 0 mm 1 mps 628 mmHg 85%
06:00 +8°C° 0 mm 1 mps 629 mmHg 87%
07:00 +10°C° 0 mm 1 mps 629 mmHg 82%
08:00 +12°C° 0 mm 2 mps 630 mmHg 77%
09:00 +14°C° 0 mm 2 mps 630 mmHg 72%
10:00 +15°C° 0 mm 2 mps 631 mmHg 67%
11:00 +16°C° 0 mm 2 mps 631 mmHg 62%
12:00 +17°C° 0 mm 3 mps 631 mmHg 56%
13:00 +17°C° 0 mm 3 mps 631 mmHg 56%
14:00 +17°C° 0 mm 3 mps 631 mmHg 55%
15:00 +17°C° 0 mm 3 mps 631 mmHg 54%
16:00 +14°C° 0 mm 2 mps 630 mmHg 65%
17:00 +12°C° 0 mm 1 mps 629 mmHg 76%
18:00 +10°C° 0 mm 1 mps 629 mmHg 87%
19:00 +10°C° 0 mm 1 mps 629 mmHg 87%
20:00 +9°C° 0 mm 1 mps 629 mmHg 87%
21:00 +9°C° 0 mm 1 mps 629 mmHg 88%
22:00 +8°C° 0 mm 1 mps 629 mmHg 88%
23:00 +8°C° 0 mm 1 mps 629 mmHg 89%

Tomorrow, 21 September, Monday

Time Temperature Precipitation Wind Pressure Humidity
00:00 +8°C° 0 mm 1 mps 629 mmHg 90%
01:00 +8°C° 0 mm 1 mps 629 mmHg 90%
02:00 +8°C° 0 mm 1 mps 630 mmHg 90%
03:00 +8°C° 0 mm 1 mps 630 mmHg 90%
04:00 +8°C° 0 mm 1 mps 630 mmHg 89%
05:00 +8°C° 0 mm 1 mps 630 mmHg 89%
06:00 +7°C° 0 mm 1 mps 630 mmHg 89%
07:00 +10°C° 0 mm 1 mps 631 mmHg 80%
08:00 +12°C° 0 mm 2 mps 632 mmHg 72%
09:00 +14°C° 0 mm 2 mps 633 mmHg 63%
10:00 +15°C° 0 mm 2 mps 634 mmHg 62%
11:00 +16°C° 0 mm 2 mps 634 mmHg 61%
12:00 +17°C° 0 mm 2 mps 634 mmHg 60%
13:00 +17°C° 0 mm 2 mps 634 mmHg 64%
14:00 +16°C° 0 mm 2 mps 633 mmHg 68%
15:00 +16°C° 0 mm 2 mps 633 mmHg 72%
16:00 +15°C° 0 mm 2 mps 632 mmHg 79%
17:00 +13°C° 0 mm 1 mps 632 mmHg 86%
18:00 +12°C° 0 mm 1 mps 631 mmHg 93%
19:00 +11°C° 0 mm 1 mps 631 mmHg 94%
20:00 +11°C° 0 mm 1 mps 631 mmHg 94%
21:00 +10°C° 0 mm 1 mps 631 mmHg 95%
22:00 +10°C° 0 mm 1 mps 631 mmHg 94%
23:00 +10°C° 0 mm 1 mps 631 mmHg 94%

Day after tomorrow, 22 September, Tuesday

Time Temperature Precipitation Wind Pressure Humidity
00:00 +10°C° 0 mm 1 mps 631 mmHg 93%
01:00 +10°C° 0 mm 1 mps 631 mmHg 92%
02:00 +10°C° 0 mm 1 mps 631 mmHg 91%
03:00 +10°C° 0 mm 1 mps 630 mmHg 90%
04:00 +10°C° 0 mm 1 mps 630 mmHg 89%
05:00 +10°C° 0 mm 1 mps 630 mmHg 88%
06:00 +10°C° 0 mm 1 mps 630 mmHg 86%
07:00 +12°C° 0 mm 1 mps 631 mmHg 79%
08:00 +15°C° 0 mm 1 mps 632 mmHg 71%
09:00 +18°C° 0 mm 1 mps 633 mmHg 64%
10:00 +18°C° 0.2 mm 2 mps 634 mmHg 63%
11:00 +19°C° 0.2 mm 2 mps 634 mmHg 63%
12:00 +20°C° 0.2 mm 2 mps 634 mmHg 62%
13:00 +19°C° 0.7 mm 2 mps 634 mmHg 65%
14:00 +19°C° 0.7 mm 2 mps 633 mmHg 67%
15:00 +20°C° 0.7 mm 1 mps 633 mmHg 70%
16:00 +18°C° 0.2 mm 1 mps 633 mmHg 77%
17:00 +15°C° 0.2 mm 1 mps 632 mmHg 84%
18:00 +13°C° 0.2 mm 1 mps 632 mmHg 91%
19:00 +13°C° 0 mm 1 mps 632 mmHg 91%
20:00 +12°C° 0 mm 1 mps 632 mmHg 91%
21:00 +12°C° 0 mm 1 mps 632 mmHg 92%
22:00 +12°C° 0 mm 1 mps 632 mmHg 91%
23:00 +11°C° 0 mm 1 mps 631 mmHg 91%

23 September, Wednesday

Time Temperature Precipitation Wind Pressure Humidity
00:00 +11°C° 0 mm 1 mps 631 mmHg 91%
01:00 +11°C° 0 mm 1 mps 631 mmHg 91%
02:00 +11°C° 0 mm 1 mps 631 mmHg 90%
03:00 +11°C° 0 mm 1 mps 631 mmHg 90%
04:00 +10°C° 0 mm 1 mps 631 mmHg 90%
05:00 +10°C° 0 mm 1 mps 631 mmHg 89%
06:00 +10°C° 0 mm 1 mps 631 mmHg 89%
07:00 +13°C° 0 mm 1 mps 631 mmHg 83%
08:00 +15°C° 0 mm 1 mps 632 mmHg 77%
09:00 +17°C° 0 mm 2 mps 633 mmHg 72%
10:00 +18°C° 0.2 mm 2 mps 633 mmHg 69%
11:00 +19°C° 0.2 mm 2 mps 633 mmHg 66%
12:00 +20°C° 0.2 mm 2 mps 633 mmHg 64%
13:00 +20°C° 0.6 mm 2 mps 633 mmHg 66%
14:00 +19°C° 0.6 mm 2 mps 632 mmHg 68%
15:00 +19°C° 0.6 mm 2 mps 632 mmHg 70%
16:00 +17°C° 0.2 mm 2 mps 631 mmHg 77%
17:00 +16°C° 0.2 mm 1 mps 631 mmHg 84%
18:00 +14°C° 0.2 mm 1 mps 630 mmHg 91%
19:00 +14°C° 0 mm 1 mps 630 mmHg 92%
20:00 +13°C° 0 mm 1 mps 630 mmHg 92%
21:00 +13°C° 0 mm 1 mps 630 mmHg 93%
22:00 +13°C° 0 mm 1 mps 630 mmHg 93%
23:00 +13°C° 0 mm 1 mps 630 mmHg 92%

24 September, Thursday

Time Temperature Precipitation Wind Pressure Humidity
00:00 +13°C° 0 mm 2 mps 630 mmHg 92%
01:00 +13°C° 0 mm 1 mps 630 mmHg 92%
02:00 +13°C° 0 mm 1 mps 630 mmHg 91%
03:00 +13°C° 0 mm 1 mps 630 mmHg 91%
04:00 +13°C° 0 mm 1 mps 630 mmHg 91%
05:00 +12°C° 0 mm 1 mps 630 mmHg 91%
06:00 +12°C° 0 mm 1 mps 630 mmHg 91%
07:00 +14°C° 0 mm 1 mps 630 mmHg 87%
08:00 +15°C° 0 mm 1 mps 630 mmHg 82%
09:00 +16°C° 0 mm 2 mps 631 mmHg 78%
10:00 +17°C° 0.2 mm 2 mps 631 mmHg 73%
11:00 +18°C° 0.2 mm 2 mps 631 mmHg 69%
12:00 +19°C° 0.2 mm 2 mps 631 mmHg 64%
13:00 +20°C° 0.4 mm 2 mps 631 mmHg 64%
14:00 +20°C° 0.4 mm 2 mps 631 mmHg 64%
15:00 +20°C° 0.4 mm 2 mps 631 mmHg 64%
16:00 +19°C° 0.2 mm 1 mps 630 mmHg 72%
17:00 +16°C° 0.2 mm 1 mps 630 mmHg 80%
18:00 +14°C° 0.2 mm 1 mps 629 mmHg 88%
19:00 +13°C° 0 mm 1 mps 629 mmHg 88%
20:00 +13°C° 0 mm 1 mps 629 mmHg 89%
21:00 +12°C° 0 mm 1 mps 629 mmHg 90%
22:00 +12°C° 0 mm 1 mps 629 mmHg 89%
23:00 +12°C° 0 mm 1 mps 629 mmHg 89%

25 September, Friday

Time Temperature Precipitation Wind Pressure Humidity
00:00 +11°C° 0 mm 1 mps 629 mmHg 88%
01:00 +11°C° 0 mm 1 mps 628 mmHg 88%
02:00 +11°C° 0 mm 1 mps 628 mmHg 87%
03:00 +11°C° 0 mm 1 mps 628 mmHg 87%
04:00 +11°C° 0 mm 1 mps 628 mmHg 85%
05:00 +11°C° 0 mm 1 mps 628 mmHg 84%
06:00 +11°C° 0 mm 1 mps 628 mmHg 82%
07:00 +13°C° 0 mm 1 mps 629 mmHg 74%
08:00 +16°C° 0 mm 1 mps 629 mmHg 65%
09:00 +20°C° 0 mm 1 mps 630 mmHg 57%
10:00 +21°C° 0 mm 1 mps 630 mmHg 54%
11:00 +21°C° 0 mm 2 mps 631 mmHg 52%
12:00 +23°C° 0 mm 2 mps 631 mmHg 49%
13:00 +23°C° 0 mm 2 mps 630 mmHg 50%
14:00 +21°C° 0 mm 2 mps 630 mmHg 52%
15:00 +21°C° 0 mm 2 mps 630 mmHg 54%
16:00 +19°C° 0 mm 2 mps 629 mmHg 63%
17:00 +18°C° 0 mm 1 mps 628 mmHg 73%
18:00 +14°C° 0 mm 1 mps 627 mmHg 82%
19:00 +14°C° 0 mm 1 mps 627 mmHg 82%
20:00 +13°C° 0 mm 1 mps 627 mmHg 82%
21:00 +13°C° 0 mm 1 mps 627 mmHg 82%
22:00 +12°C° 0 mm 1 mps 627 mmHg 82%
23:00 +12°C° 0 mm 1 mps 626 mmHg 81%
Show more